Location: Castillon
(43.0896°N, 0.2156°E)
Time: 18:02:01
(UTC+00:00)

Cosmos 1459 Rocket - Pass Details

Date: 16 June 2021
Orbit: 937 x 999 km, 83.0° (Epoch: 31 July)

Event Time Altitude Azimuth Distance (km) Brightness Sun altitude
Rises 21:01:45 0° 356° (N) 3,611 7.9 -11.9°
Reaches altitude 10° 21:04:19 10° 2° (N) 2,660 7.0 -12.2°
Maximum altitude 21:10:13 52° 78° (ENE) 1,160 4.2 -12.9°
Enters shadow 21:14:33 18° 148° (SSE) 2,113 5.1 -13.4°
